Погода в Маунтин-Вью

США     37°23′09″N   122°05′02″W
темп.,
°C
ветер,
м/с
пор.,
м/с
влажн.,
%
обл.,
%
осадки,
мм/ч
давл.,
гПа
погр.,
м
25 января, пн
пн2501:00+8сз7165633 0.0 10101894
04:00+8сз6145517 0.0 10101602
07:00+7сз411560 0.0 10111098
10:00+9сз69490 0.0 10111128
13:00+11сз68400 0.0 10111645
16:00+11зсз811430 0.1 10101914
19:00+8зсз610530 0.0 10111269
22:00+7сз38520 0.0 10121025
26 января, вт
вт2601:00+6ссз15570 0.0 1013555
04:00+5в11610 0.0 101447
07:00+5юв226330 0.0 101593
10:00+8ю235527 0.0 1016705
13:00+11ююз344596 0.0 10151611
16:00+10ююв685398 0.1 10131281
19:00+7ююв81471100 0.7 1011932
22:00+8ююв101870100 1.6 10081173
27 января, ср
ср2701:00+8ююв112381100 7.9 10051535
04:00+10ю61584100 34.8 10051194
07:00+9ююв398899 1.9 1007521
10:00+12ю366796 2.5 1008894
13:00+13ю4759100 0.3 10071294
16:00+12ююв4664100 0.8 1006938
19:00+10юв3679100 0.8 1007615
22:00+10юв3884100 2.0 1008687
28 января, чт
чт2801:00+10ююв4978100 0.6 1008660
04:00+10ююв387999 1.1 1008567
07:00+9юв378486 0.8 1008332
10:00+12ююв486772 1.1 1010894
13:00+15ю585497 0.8 10091495
16:00+14ю575256 1.4 10091420
19:00+12ююв256458 0.2 1010794
22:00+10ююв357529 0.4 1011225
29 января, пт
пт2901:00+9ююв23780 0.0 1011128
04:00+8ю24800 0.0 1012183
07:00+8зюз268245 0.1 1014582
10:00+10зсз465732 0.2 10161228
13:00+11зсз454233 0.0 10171506
16:00+11з344717 0.0 10181430
19:00+9ююз12540 0.0 1020554
22:00+9юв365637 0.0 1020373